User: anonymous   Login
Location: Castillon
(43.0896°N, 0.2156°E)
Time: 16:55:49
(UTC+00:00)
Language:

Celestis-02/Orion 38 - Orbit

View from above orbital plane
View from above orbital plane
View from above satellite
View from above satellite

Ground track
Ground track

The orbit data is extracted from the following two-line orbital elements,

1 25160U 98007D   21258.74707286 -.00000066  00000-0  28351-4 0  9993
2 25160 107.9828  73.7447 0063805 221.3982 149.6001 14.21574300223827
Epoch (UTC): 15 September 2021 17:55:47
Eccentricity: 0.0063805
inclination: 107.9828°
perigee height: 774 km
apogee height: 866 km
right ascension of ascending node: 73.7447°
argument of perigee: 221.3982°
revolutions per day: 14.21574300
mean anomaly at epoch: 149.6001°
orbit number at epoch: 22382

The dashed part of the orbit path shows where the satellite is in the earth's shadow,  

DLR